{"data":{"norad_id":59358,"intl_designator":"2024-060L","name":"STARLINK-31559","alt_names":[],"object_type":"PAYLOAD","status":"ACTIVE","operator":null,"country":"US","launch_date":"2024-03-31","launch_site_code":"AFETR","launch_vehicle":null,"mission":null,"orbit_class":"UNKNOWN","rcs_meters":null,"size_class":null,"mass_kg":null,"dimensions":null,"purposes":["comms"],"wikipedia_slug":null,"has_3d_model":false,"image_url":null,"decayed_at":null,"tle_current":{"epoch":"2026-05-25T04:29:19.068864Z","epoch_age_seconds":69622,"freshness":"FRESH","line1":"1 59358U 24060L   26145.18702626  .00000104  00000+0  13311-4 0  9999","line2":"2 59358  43.0023 187.7088 0001378 271.0204  89.0490 15.27573254121766","mean_motion":15.27573254,"eccentricity":0.0001378,"inclination_deg":43.0023,"raan_deg":187.7088,"arg_perigee_deg":271.0204,"mean_anomaly_deg":89.049,"bstar":1.3311e-5,"rev_number":12176,"period_min":94.267165010209,"perigee_km":482.12382183725,"apogee_km":484.01477029245,"semimajor_km":6861.2062960649,"source":"CELESTRAK","updated_at":"2026-05-25T13:38:18.910298Z"}}}